This is the latest recevied weather packets stored in our database for station/object KE5JQA-1. If no packets are shown the sender has not sent any weather packets the latest 10 day(s).
| Time | Temp. | Humidity | Pressure | Rain* | Wind** | Luminosity | Snow |
|---|---|---|---|---|---|---|---|
| 1777599917 | 16.67° C | 41% | 1014 hPa | 1.02 mm | - | - | - |
| 1777598117 | 16.67° C | 41% | 1013.5 hPa | 1.52 mm | - | - | - |
| 1777597237 | 17.22° C | 41% | 1013.1 hPa | 1.78 mm | - | - | - |
| 1777596617 | 17.22° C | 41% | 1013.1 hPa | 1.78 mm | - | - | - |
| 1777593917 | 17.22° C | 40% | 1013.6 hPa | 1.02 mm | - | - | - |
| 1777592417 | 17.22° C | 40% | 1013.6 hPa | 0 mm | - | - | - |
| 1777591817 | 17.22° C | 40% | 1013.3 hPa | 0 mm | - | - | - |
| 1777589717 | 17.22° C | 40% | 1012.5 hPa | 0 mm | - | - | - |
| 1777589417 | 17.22° C | 40% | 1012.8 hPa | 0.25 mm | - | - | - |
| 1777588816 | 17.78° C | 40% | 1012.2 hPa | 0.25 mm | - | - | - |
| 1777587017 | 17.78° C | 40% | 1010.8 hPa | 0.25 mm | - | - | - |
| 1777585237 | 17.22° C | 40% | 1012.8 hPa | 1.02 mm | - | - | - |
| 1777584917 | 17.22° C | 40% | 1012.7 hPa | 1.02 mm | - | - | - |
| 1777583716 | 17.78° C | 40% | 1012.1 hPa | 1.52 mm | - | - | - |
| 1777582537 | 17.78° C | 40% | 1013.2 hPa | 1.52 mm | - | - | - |
| 1777579216 | 18.33° C | 36% | 1014.1 hPa | 1.78 mm | - | - | - |
| 1777576837 | 18.89° C | 34% | 1014 hPa | 0.25 mm | - | - | - |
| 1777574116 | 18.33° C | 38% | 1014.1 hPa | 0 mm | - | - | - |
| 1777573516 | 18.33° C | 40% | 1013.5 hPa | 0 mm | - | - | - |
| 1777571416 | 17.78° C | 40% | 1014.7 hPa | 0.25 mm | - | - | - |
| 1777569016 | 17.78° C | 40% | 1016.2 hPa | 0 mm | - | - | - |
| 1777568736 | 17.78° C | 40% | 1016.2 hPa | 0 mm | - | - | - |
| 1777566916 | 17.78° C | 40% | 1015.5 hPa | 0.25 mm | - | - | - |
| 1777565716 | 17.78° C | 40% | 1014.5 hPa | 0.25 mm | - | - | - |
| 1777565116 | 17.78° C | 40% | 1014.3 hPa | 0.25 mm | - | - | - |
* Rain latest hour (hover to see other rain measurements)
** Current wind speed in m/s (hover to see current wind gust speed)